CWOP Weather Reports


time (UTC)temp
C
wind
direction
speed
KPH
gust
KPH
rain 1hr
cm
rain 24hr
cm
rain mn
cm
humidity
%
barometer
mb
20260906104012 20 101 0.0 3.2 0.00 0.00 0.00 96 1015.7
20260906103512 20 101 0.0 3.2 0.00 0.00 0.00 96 1015.6
20260906103027 20 101 0.0 1.6 0.00 0.00 0.00 96 1015.5
20260906102515 20 101 1.6 1.6 0.00 0.00 0.00 96 1015.6
20260906102008 20 101 1.6 3.2 0.00 0.00 0.00 96 1015.6
20260906101512 20 101 1.6 3.2 0.00 0.00 0.00 96 1015.6
20260906101008 20 101 0.0 3.2 0.00 0.00 0.00 96 1015.7
20260906100515 20 101 0.0 3.2 0.00 0.00 0.00 96 1015.7
20260906100031 20 101 0.0 3.2 0.00 0.00 0.00 96 1015.7
20260906095513 20 101 1.6 3.2 0.00 0.00 0.00 96 1015.7
20260906095019 20 101 0.0 3.2 0.00 0.00 0.00 97 1015.7
20260906094534 20 101 0.0 3.2 0.00 0.00 0.00 97 1015.8
20260906094007 20 101 0.0 3.2 0.00 0.00 0.00 96 1015.7
20260906093508 20 101 0.0 0.0 0.00 0.00 0.00 96 1015.6
20260906093017 20 101 0.0 3.2 0.00 0.00 0.00 96 1015.5
20260906092518 20 101 0.0 3.2 0.00 0.00 0.00 96 1015.6
20260906092014 20 101 0.0 3.2 0.00 0.00 0.00 96 1015.6
20260906091528 20 101 0.0 3.2 0.00 0.00 0.00 97 1015.5
20260906091014 20 101 0.0 0.0 0.00 0.00 0.00 96 1015.6
20260906090515 20 101 0.0 3.2 0.00 0.00 0.00 96 1015.5
20260906090010 20 101 0.0 3.2 0.00 0.00 0.00 96 1015.5
20260906085508 20 101 0.0 3.2 0.00 0.00 0.00 96 1015.5
20260906085009 20 101 1.6 3.2 0.00 0.00 0.00 96 1015.4
20260906084523 20 113 1.6 3.2 0.00 0.00 0.00 96 1015.4
20260906084016 20 69 0.0 3.2 0.00 0.00 0.00 96 1015.4
20260906083516 20 141 0.0 4.8 0.00 0.00 0.00 96 1015.3
20260906083031 20 128 1.6 4.8 0.00 0.00 0.00 96 1015.2
20260906082519 21 65 3.2 4.8 0.00 0.00 0.00 96 1015.4
20260906082008 21 83 1.6 3.2 0.00 0.00 0.00 96 1015.3
20260906081520 21 88 0.0 0.0 0.00 0.00 0.00 97 1015.4
20260906081011 21 88 0.0 0.0 0.00 0.00 0.00 97 1015.5
20260906080514 21 10 0.0 0.0 0.00 0.00 0.00 97 1015.6
20260906080037 20 10 0.0 0.0 0.00 0.00 0.00 97 1015.5
20260906075515 20 10 0.0 0.0 0.00 0.00 0.00 97 1015.4
20260906075016 20 10 0.0 0.0 0.00 0.00 0.00 96 1015.4
20260906074533 20 10 0.0 0.0 0.00 0.00 0.00 96 1015.4
20260906074009 20 78 0.0 0.0 0.00 0.00 0.00 97 1015.3
20260906073510 20 78 0.0 0.0 0.00 0.00 0.00 96 1015.3
20260906073023 20 87 0.0 0.0 0.00 0.00 0.00 96 1015.3
20260906072512 20 24 0.0 0.0 0.00 0.00 0.00 97 1015.2
20260906072014 20 24 0.0 0.0 0.00 0.00 0.00 97 1015.3
20260906071532 20 24 0.0 0.0 0.00 0.00 0.00 97 1015.5
20260906071024 20 24 0.0 0.0 0.00 0.00 0.00 97 1015.5
20260906070521 20 24 0.0 0.0 0.00 0.00 0.00 96 1015.6
20260906070015 20 24 0.0 0.0 0.00 0.00 0.00 96 1015.5
20260906065512 20 24 0.0 0.0 0.00 0.00 0.00 95 1015.5
20260906065012 20 24 0.0 0.0 0.00 0.00 0.00 96 1015.5
20260906064527 20 24 0.0 0.0 0.00 0.00 0.00 96 1015.5
20260906064015 20 24 0.0 0.0 0.00 0.00 0.00 96 1015.4
20260906063516 20 67 0.0 0.0 0.00 0.00 0.00 96 1015.4
20260906063031 20 28 0.0 0.0 0.00 0.00 0.00 95 1015.4
20260906062516 20 27 0.0 0.0 0.00 0.00 0.00 95 1015.4
20260906062010 20 28 0.0 0.0 0.00 0.00 0.00 96 1015.5
20260906061521 20 28 0.0 0.0 0.00 0.00 0.00 96 1015.6
20260906061017 20 39 0.0 0.0 0.00 0.00 0.00 96 1015.6
20260906060514 20 40 0.0 0.0 0.00 0.00 0.00 96 1015.7
20260906060027 20 126 0.0 0.0 0.00 0.00 0.00 95 1015.7
20260906055515 20 91 0.0 1.6 0.00 0.00 0.00 95 1015.8
20260906055018 20 109 0.0 1.6 0.00 0.00 0.00 95 1015.9
20260906054532 20 109 0.0 3.2 0.00 0.00 0.00 95 1015.9
20260906054010 20 109 0.0 3.2 0.00 0.00 0.00 95 1016.1
20260906053512 20 109 0.0 4.8 0.00 0.00 0.00 95 1016.1
20260906053024 20 109 0.0 4.8 0.00 0.00 0.00 95 1016.1
20260906052515 20 114 1.6 4.8 0.00 0.00 0.00 94 1016.2
20260906052015 21 82 0.0 3.2 0.00 0.00 0.00 96 1016.2
20260906051530 21 82 0.0 4.8 0.00 0.00 0.00 96 1016.3
20260906051021 21 82 1.6 4.8 0.00 0.00 0.00 97 1016.3
20260906050522 21 105 1.6 3.2 0.00 0.00 0.00 97 1016.3
20260906050018 20 138 0.0 3.2 0.00 0.00 0.00 96 1016.4
20260906045516 20 211 0.0 3.2 0.00 0.00 0.00 96 1016.5
20260906045016 20 316 1.6 3.2 0.00 0.00 0.00 96 1016.5
20260906044529 20 113 0.0 3.2 0.00 0.00 0.00 96 1016.4
20260906044020 20 72 0.0 3.2 0.00 0.00 0.00 96 1016.4
20260906043514 20 72 1.6 3.2 0.00 0.00 0.00 96 1016.5
20260906043033 20 94 0.0 3.2 0.00 0.00 0.00 95 1016.5
20260906042519 20 94 1.6 3.2 0.00 0.00 0.00 95 1016.4
20260906042010 20 94 1.6 3.2 0.00 0.00 0.00 95 1016.3
20260906041524 20 86 1.6 3.2 0.00 0.00 0.00 95 1016.1
20260906041014 20 74 0.0 3.2 0.00 0.00 0.00 95 1016.1
20260906040513 20 74 0.0 3.2 0.00 0.00 0.00 94 1016.2
20260906040031 20 74 0.0 3.2 0.00 0.00 0.00 94 1016.3
20260906035517 20 74 0.0 3.2 0.00 0.00 0.00 95 1016.2
20260906035017 20 74 0.0 3.2 0.00 0.00 0.00 95 1016.3
20260906034551 20 74 0.0 3.2 0.00 0.00 0.00 95 1016.4
20260906034010 20 78 1.6 3.2 0.00 0.00 0.00 95 1016.4
20260906033514 20 96 0.0 3.2 0.00 0.00 0.00 95 1016.4
20260906033033 20 96 0.0 3.2 0.00 0.00 0.00 96 1016.5
20260906032516 20 69 0.0 3.2 0.00 0.00 0.00 95 1016.4
20260906032019 20 62 1.6 3.2 0.00 0.00 0.00 94 1016.4
20260906031535 20 62 0.0 3.2 0.00 0.00 0.00 94 1016.5
20260906031018 21 63 0.0 3.2 0.00 0.00 0.00 95 1016.5
20260906030521 20 62 0.0 3.2 0.00 0.00 0.00 95 1016.5
20260906030024 21 63 0.0 3.2 0.00 0.00 0.00 94 1016.3
20260906025520 21 63 0.0 3.2 0.00 0.00 0.00 94 1016.4
20260906025014 21 92 0.0 3.2 0.00 0.00 0.00 95 1016.2
20260906024531 21 92 0.0 3.2 0.00 0.00 0.00 94 1016.2
20260906024017 21 92 0.0 3.2 0.00 0.00 0.00 93 1016.3
20260906023516 21 92 0.0 3.2 0.00 0.00 0.00 94 1016.3
20260906023034 21 92 0.0 3.2 0.00 0.00 0.00 94 1016.2
20260906022518 21 92 3.2 3.2 0.00 0.00 0.00 94 1016.1
20260906022014 21 67 0.0 3.2 0.00 0.00 0.00 93 1016.0
20260906021532 21 67 0.0 3.2 0.00 0.00 0.00 93 1016.0
20260906021014 21 67 0.0 3.2 0.00 0.00 0.00 93 1016.0
20260906020518 21 67 0.0 3.2 0.00 0.00 0.00 94 1016.0
20260906020033 21 89 0.0 3.2 0.00 0.00 0.00 93 1016.0
20260906015516 21 125 0.0 3.2 0.00 0.00 0.00 94 1016.0
20260906015015 21 125 0.0 3.2 0.00 0.00 0.00 93 1015.8
20260906014534 21 125 0.0 3.2 0.00 0.00 0.00 93 1015.8
20260906014013 21 125 0.0 4.8 0.00 0.00 0.00 93 1015.7
20260906013516 22 107 1.6 4.8 0.00 0.00 0.00 93 1015.7
20260906013028 22 97 1.6 4.8 0.00 0.00 0.00 94 1015.7
20260906012519 21 97 3.2 4.8 0.00 0.00 0.00 93 1015.7
20260906012018 22 107 0.0 3.2 0.00 0.00 0.00 93 1015.6
20260906011534 22 94 1.6 3.2 0.00 0.00 0.00 93 1015.7
20260906011016 22 83 0.0 1.6 0.00 0.00 0.00 92 1015.6
20260906010516 22 83 0.0 3.2 0.00 0.00 0.00 92 1015.4
20260906010028 22 83 1.6 3.2 0.00 0.00 0.00 92 1015.5
20260906005513 22 83 0.0 3.2 0.00 0.00 0.00 92 1015.4
20260906005016 22 83 1.6 3.2 0.00 0.00 0.00 92 1015.4
20260906004531 22 132 0.0 3.2 0.00 0.00 0.00 91 1015.3
20260906004023 22 132 0.0 3.2 0.00 0.00 0.00 90 1015.3
20260906003518 22 132 0.0 3.2 0.00 0.00 0.00 90 1015.2
20260906003031 22 132 1.6 1.6 0.00 0.00 0.00 89 1015.2
20260906002520 23 132 0.0 3.2 0.00 0.00 0.00 90 1015.1
20260906002014 23 132 0.0 3.2 0.00 0.00 0.00 88 1015.2
20260906001543 23 132 0.0 0.0 0.00 0.00 0.00 88 1015.2
20260906001016 23 132 0.0 1.6 0.00 0.00 0.00 88 1015.2
20260906000516 23 132 0.0 3.2 0.00 0.00 0.00 88 1015.2
20260906000030 23 132 0.0 3.2 0.00 0.00 0.00 89 1015.3
20260905235516 23 132 0.0 3.2 0.00 0.00 0.00 87 1015.2
20260905235019 24 132 0.0 3.2 0.00 0.00 0.00 88 1015.2
20260905234537 24 132 0.0 3.2 0.00 0.00 0.00 86 1015.1
20260905234015 24 132 0.0 3.2 0.00 0.00 0.00 86 1015.1
20260905233516 25 132 0.0 3.2 0.00 0.00 0.00 86 1015.1
20260905233032 25 132 0.0 3.2 0.00 0.00 0.00 85 1015.1
20260905232523 25 132 0.0 4.8 0.00 0.00 0.00 85 1015.1
20260905232019 25 105 1.6 4.8 0.00 0.00 0.00 84 1015.1
20260905231533 25 111 1.6 6.4 0.00 0.00 0.00 84 1015.0
20260905231019 25 90 3.2 4.8 0.00 0.00 0.00 84 1014.9
20260905230516 25 82 1.6 3.2 0.00 0.00 0.00 83 1015.0
20260905230034 26 155 0.0 3.2 0.00 0.00 0.00 83 1015.1
20260905225520 26 126 0.0 3.2 0.00 0.00 0.00 83 1015.1
20260905225018 26 72 0.0 3.2 0.00 0.00 0.00 82 1015.0
20260905224534 26 5 1.6 3.2 0.00 0.00 0.00 82 1015.1
20260905224008 26 65 0.0 3.2 0.00 0.00 0.00 81 1015.1
20260905223518 26 65 0.0 3.2 0.00 0.00 0.00 81 1015.1
20260905223035 26 65 0.0 3.2 0.00 0.00 0.00 82 1015.1
20260905222517 26 65 0.0 3.2 0.00 0.00 0.00 82 1015.1
20260905222008 26 65 0.0 3.2 0.00 0.00 0.00 80 1015.1
20260905221507 26 65 0.0 3.2 0.00 0.00 0.00 80 1015.0
20260905221006 26 119 0.0 3.2 0.00 0.00 0.00 80 1015.1
20260905220510 26 119 0.0 3.2 0.00 0.00 0.00 82 1015.1
20260905220015 26 82 1.6 3.2 0.00 0.00 0.00 80 1015.2
20260905215510 26 82 1.6 3.2 0.00 0.00 0.00 80 1015.3
20260905215014 26 221 0.0 3.2 0.00 0.00 0.00 79 1015.4
20260905214505 26 200 0.0 3.2 0.00 0.00 0.00 79 1015.3
20260905214004 26 113 0.0 3.2 0.00 0.00 0.00 78 1015.4
20260905213504 26 113 0.0 3.2 0.00 0.00 0.00 79 1015.3
20260905213009 26 205 0.0 4.8 0.00 0.00 0.00 79 1015.4
20260905212508 26 188 1.6 9.7 0.00 0.00 0.00 78 1015.4
20260905212011 26 253 3.2 11.3 0.00 0.00 0.00 78 1015.3
20260905211522 26 198 6.4 11.3 0.00 0.00 0.00 77 1015.3
20260905211013 26 217 6.4 8.0 0.00 0.00 0.00 79 1015.2
20260905210504 26 208 6.4 8.0 0.00 0.00 0.00 80 1015.2
20260905210003 26 206 3.2 3.2 0.00 0.00 0.00 80 1015.2
20260905205503 26 173 0.0 3.2 0.00 0.00 0.00 81 1015.2
20260905205008 26 104 0.0 3.2 0.00 0.00 0.00 79 1015.5
20260905204513 26 104 1.6 3.2 0.00 0.00 0.00 79 1015.6
20260905204011 26 251 0.0 3.2 0.00 0.00 0.00 78 1015.7
20260905203514 26 208 0.0 6.4 0.00 0.00 0.00 78 1015.8
20260905203026 26 209 3.2 6.4 0.00 0.00 0.00 77 1015.9
20260905202503 26 246 3.2 6.4 0.00 0.00 0.00 76 1016.1
20260905202008 27 202 3.2 16.1 0.00 0.00 0.00 76 1016.0
20260905201512 27 180 3.2 16.1 0.00 0.00 0.00 74 1016.0
20260905201007 27 191 8.0 14.5 0.00 0.00 0.00 73 1016.1
20260905200509 28 159 8.0 14.5 0.00 0.00 0.00 71 1016.0
20260905200030 29 205 6.4 11.3 0.00 0.00 0.00 68 1016.1
20260905195513 29 171 1.6 6.4 0.00 0.00 0.00 70 1015.8
20260905195015 29 150 1.6 6.4 0.00 0.00 0.00 68 1015.8
20260905194505 29 153 3.2 8.0 0.00 0.00 0.00 71 1015.9
20260905194004 29 13 3.2 11.3 0.00 0.00 0.00 68 1015.7
20260905193507 28 11 4.8 11.3 0.00 0.00 0.00 68 1015.6
20260905193017 28 346 3.2 6.4 0.00 0.00 0.00 72 1015.6
20260905192512 28 34 1.6 4.8 0.00 0.00 0.00 75 1015.7
20260905192013 27 294 1.6 3.2 0.00 0.00 0.00 73 1016.1
20260905191524 27 329 1.6 12.9 0.00 0.00 0.00 70 1016.2
20260905191020 28 18 3.2 12.9 0.00 0.00 0.00 69 1016.4
20260905190504 28 352 3.2 9.7 0.00 0.00 0.00 69 1016.6
20260905190008 28 352 1.6 12.9 0.00 0.00 0.00 71 1016.6
20260905185507 28 15 6.4 12.9 0.00 0.00 0.00 70 1016.5
20260905185012 29 313 3.2 6.4 0.00 0.00 0.00 71 1016.4
20260905184530 29 267 1.6 8.0 0.00 0.00 0.00 71 1016.2
20260905184011 29 334 3.2 8.0 0.00 0.00 0.00 70 1016.0
20260905183513 30 278 1.6 6.4 0.00 0.00 0.00 68 1015.9
20260905183035 30 270 1.6 6.4 0.00 0.00 0.00 66 1015.7
20260905182503 30 216 3.2 8.0 0.00 0.00 0.00 65 1015.9
20260905182006 30 259 4.8 14.5 0.00 0.00 0.00 64 1016.0
20260905181512 31 232 4.8 16.1 0.00 0.00 0.00 64 1015.7
20260905181008 31 194 11.3 16.1 0.00 0.00 0.00 62 1015.8
20260905180510 32 229 6.4 14.5 0.00 0.00 0.00 64 1016.1
20260905180022 31 297 3.2 8.0 0.00 0.00 0.00 64 1016.0
20260905175521 31 43 1.6 9.7 0.00 0.00 0.00 63 1016.0
20260905175015 31 333 4.8 9.7 0.00 0.00 0.00 65 1016.2
20260905174508 31 253 4.8 11.3 0.00 0.00 0.00 63 1016.3
20260905174006 31 259 4.8 11.3 0.00 0.00 0.00 68 1016.5
20260905173506 31 219 3.2 12.9 0.00 0.00 0.00 67 1016.5
20260905173019 31 209 4.8 12.9 0.00 0.00 0.00 67 1016.5
20260905172512 31 298 3.2 11.3 0.00 0.00 0.00 66 1016.4
20260905172014 31 253 4.8 11.3 0.00 0.00 0.00 66 1016.5
20260905171526 31 281 1.6 8.0 0.00 0.00 0.00 70 1016.5
20260905171013 31 102 1.6 11.3 0.00 0.00 0.00 70 1016.6
20260905170506 30 264 6.4 11.3 0.00 0.00 0.00 68 1016.7
20260905170010 30 286 3.2 9.7 0.00 0.00 0.00 66 1016.7
20260905165506 30 296 3.2 12.9 0.00 0.00 0.00 69 1016.8
20260905165013 30 281 1.6 12.9 0.00 0.00 0.00 69 1016.9
20260905164522 30 352 3.2 11.3 0.00 0.00 0.00 69 1017.0
20260905164014 30 40 3.2 11.3 0.00 0.00 0.00 72 1017.0
20260905163517 30 238 1.6 9.7 0.00 0.00 0.00 73 1017.1
20260905163029 30 96 1.6 9.7 0.00 0.00 0.00 73 1017.2
20260905162507 30 225 4.8 9.7 0.00 0.00 0.00 72 1017.3
20260905162010 30 199 3.2 8.0 0.00 0.00 0.00 71 1017.3
20260905161514 30 195 1.6 6.4 0.00 0.00 0.00 72 1017.4
20260905161012 29 344 1.6 9.7 0.00 0.00 0.00 73 1017.5
20260905160513 29 265 3.2 9.7 0.00 0.00 0.00 73 1017.5
20260905160027 29 205 3.2 8.0 0.00 0.00 0.00 75 1017.5
20260905155514 29 202 4.8 8.0 0.00 0.00 0.00 73 1017.5
20260905155016 29 146 1.6 4.8 0.00 0.00 0.00 75 1017.6
20260905154506 29 207 3.2 4.8 0.00 0.00 0.00 74 1017.6
20260905154006 29 128 3.2 4.8 0.00 0.00 0.00 71 1017.7
20260905153511 29 65 1.6 4.8 0.00 0.00 0.00 71 1017.7
20260905153026 28 251 0.0 3.2 0.00 0.00 0.00 73 1017.7
20260905152516 28 201 1.6 3.2 0.00 0.00 0.00 74 1017.8
20260905152015 28 187 1.6 4.8 0.00 0.00 0.00 72 1017.9
20260905151531 28 26 0.0 4.8 0.00 0.00 0.00 74 1017.9
20260905151021 28 227 1.6 3.2 0.00 0.00 0.00 74 1017.9
20260905150511 27 78 0.0 3.2 0.00 0.00 0.00 73 1017.9
20260905150020 27 22 0.0 4.8 0.00 0.00 0.00 74 1017.9
20260905145512 27 352 1.6 4.8 0.00 0.00 0.00 75 1017.9
20260905145010 27 352 0.0 4.8 0.00 0.00 0.00 80 1017.9
20260905144523 27 64 1.6 4.8 0.00 0.00 0.00 78 1018.0
20260905144016 27 350 1.6 3.2 0.00 0.00 0.00 81 1018.0
20260905143516 26 5 1.6 3.2 0.00 0.00 0.00 80 1018.1
20260905143036 26 50 0.0 3.2 0.00 0.00 0.00 81 1018.2
20260905142505 26 49 0.0 3.2 0.00 0.00 0.00 82 1018.2
20260905142012 25 348 0.0 3.2 0.00 0.00 0.00 86 1018.2
20260905141516 25 348 0.0 3.2 0.00 0.00 0.00 86 1018.2
20260905141012 24 348 0.0 3.2 0.00 0.00 0.00 88 1018.3
20260905140515 24 181 0.0 3.2 0.00 0.00 0.00 89 1018.4
20260905140033 23 244 0.0 3.2 0.00 0.00 0.00 91 1018.5
20260905135517 23 211 0.0 3.2 0.00 0.00 0.00 91 1018.6
20260905135018 23 171 0.0 3.2 0.00 0.00 0.00 93 1018.7
20260905134523 23 159 0.0 3.2 0.00 0.00 0.00 96 1018.7
20260905134006 23 317 0.0 1.6 0.00 0.00 0.00 97 1018.8
20260905133508 22 197 0.0 0.0 0.00 0.00 0.00 97 1018.8
20260905133007 22 222 0.0 0.0 0.00 0.00 0.00 97 1018.8
20260905132504 22 254 0.0 0.0 0.00 0.00 0.00 97 1018.9
20260905132007 21 53 0.0 0.0 0.00 0.00 0.00 97 1018.9
20260905131509 21 53 0.0 0.0 0.00 0.00 0.00 97 1018.9
20260905131007 21 83 0.0 0.0 0.00 0.00 0.00 97 1018.8
20260905130508 21 83 0.0 3.2 0.00 0.00 0.00 97 1018.8
20260905130010 21 84 0.0 3.2 0.00 0.00 0.00 97 1018.8
20260905125509 21 121 0.0 3.2 0.00 0.00 0.00 97 1018.8
20260905125017 21 113 0.0 3.2 0.00 0.00 0.00 97 1018.8
20260905124514 21 97 0.0 3.2 0.00 0.00 0.00 97 1018.8
20260905124003 21 97 0.0 3.2 0.00 0.00 0.00 97 1018.7
20260905123507 21 97 0.0 3.2 0.00 0.00 0.00 97 1018.7
20260905123031 21 97 0.0 3.2 0.00 0.00 0.00 97 1018.6
20260905122508 21 97 0.0 3.2 0.00 0.00 0.00 97 1018.6
20260905122012 20 97 1.6 3.2 0.00 0.00 0.00 97 1018.6
20260905121510 20 93 3.2 3.2 0.00 0.00 0.00 96 1018.5
20260905121007 21 109 0.0 0.0 0.00 0.00 0.00 97 1018.4
20260905120507 21 108 0.0 0.0 0.00 0.00 0.00 97 1018.4
20260905120008 21 108 0.0 0.0 0.00 0.00 0.00 97 1018.3
20260905115511 21 148 0.0 0.0 0.00 0.00 0.00 97 1018.3
20260905115014 21 109 0.0 0.0 0.00 0.00 0.00 97 1018.2
20260905114515 20 150 0.0 0.0 0.00 0.00 0.00 97 1018.1
20260905114009 20 105 0.0 0.0 0.00 0.00 0.00 97 1018.0
20260905113509 20 105 0.0 1.6 0.00 0.00 0.00 97 1018.0
20260905113008 20 105 0.0 3.2 0.00 0.00 0.00 97 1017.9
20260905112508 20 105 0.0 3.2 0.00 0.00 0.00 97 1017.7
20260905112005 20 105 1.6 3.2 0.00 0.00 0.00 97 1017.7
20260905111510 20 85 0.0 0.0 0.00 0.00 0.00 97 1017.6
20260905111007 20 85 0.0 1.6 0.00 0.00 0.00 97 1017.5
20260905110506 20 85 0.0 1.6 0.00 0.00 0.00 97 1017.4
20260905110014 20 85 1.6 3.2 0.00 0.00 0.00 97 1017.5
20260905105510 20 85 0.0 4.8 0.00 0.00 0.00 97 1017.4
20260905105009 20 106 3.2 4.8 0.00 0.00 0.00 97 1017.4
20260905104513 20 101 3.2 4.8 0.00 0.00 0.00 97 1017.3